Location: Zilina
(49.2167°N, 18.7333°E)
Time: 05:07:35
(UTC+02:00)

ISS - Pass Details

Date: 31 March 2018
Orbit: 403 x 406 km, 51.6° (Epoch: 25 April)

Event Time Altitude Azimuth Distance (km) Brightness Sun altitude
Rises 22:35:41 0° 288° (WNW) 2,337 0.9 -29.1°
Reaches altitude 10° 22:37:46 10° 289° (WNW) 1,475 -0.3 -29.3°
Enters shadow 22:38:04 12° 289° (WNW) 1,356 -0.5 -29.3°
